Home > Weather > St. Augustine > Past weeks

Flag for USA Past Weather in St. Augustine, Florida, USA — Yesterday and Last 2 Weeks

Now
80 °F

Thundershowers. Partly sunny.


Feels Like: 85 °F
Forecast: 78 / 90 °F
Wind: 9 mph from South

Location: St. Augustine Airport

Current Time: Jun 26, 2016 at 10:07:15 AM

Latest Report: Jun 26, 2016 at 8:58 AM


Visibility: 9 mi

Pressure: 30.14 "Hg

Humidity: 81%

Dew Point: 74 °F

Location of St. AugustineLocation

Past Weather in St. Augustine — Graph

°F

St. Augustine Temperature Yesterday

Maximum temperature yesterday: 92 °F (at 12:58 PM)
Minimum temperature yesterday: 77 °F (at 4:58 AM)
Average temperature yesterday: 85 °F

High & Low Weather Summary for the Past Weeks

 TemperatureHumidityPressure
High95 °F (Jun 14, 1:58 PM)94% (Jun 18, 5:01 PM)30.26 "Hg (Jun 18, 5:01 PM)
Low65 °F (Jun 21, 4:58 AM)44% (Jun 21, 4:58 PM)29.80 "Hg (Jun 17, 5:58 PM)
Average82 °F71%30.06 "Hg
* Reported Jun 11 8:58 AM — Jun 26 8:58 AM, St. Augustine, Weather by CustomWeather, © 2016

Note: Actual official high and low records may vary slightly from our data, if they occured in-between our weather recording intervals... More about our weather records

Advertising

St. Augustine Weather History for the Previous 24 Hours

Scroll right to see more
 ConditionsComfort  
Time TempWeatherWind HumidityBarometerVisibility
8:58 AM
Sun, Jun 26
80 °FThundershowers. Partly sunny.9 mph81%30.14 "Hg9 mi
7:58 AM78 °FSunny.3 mph90%30.10 "Hg10 mi
6:58 AM78 °FLight rain. Passing clouds.5 mph87%30.10 "Hg7 mi
5:58 AM78 °FPassing clouds.No wind90%30.08 "Hg10 mi
4:58 AM79 °FMostly cloudy.3 mph88%30.06 "Hg10 mi
3:58 AM79 °FClear.No wind84%30.06 "Hg10 mi
2:58 AM80 °FClear.5 mph85%30.06 "Hg10 mi
1:58 AM80 °FClear.5 mph85%30.08 "Hg10 mi
12:58 AM81 °FClear.5 mph82%30.07 "Hg10 mi
11:58 PM
Sat, Jun 25
83 °FClear.7 mph77%30.07 "Hg10 mi
10:58 PM84 °FClear.7 mph80%30.08 "Hg10 mi
9:58 PM84 °FClear.9 mph77%30.07 "Hg10 mi
8:58 PM86 °FSunny.5 mph65%30.06 "Hg10 mi
7:58 PM88 °FSunny.9 mph55%30.04 "Hg10 mi
6:58 PM91 °FSunny.13 mph52%30.03 "Hg10 mi
5:58 PM91 °FSunny.12 mph61%30.02 "Hg10 mi
4:58 PM92 °FSunny.14 mph60%30.04 "Hg10 mi
3:58 PM91 °FSunny.12 mph64%30.06 "Hg10 mi
2:58 PM90 °FPassing clouds.10 mph66%30.07 "Hg10 mi
1:58 PM92 °FPassing clouds.7 mph62%30.08 "Hg10 mi
12:58 PM92 °FSunny.3 mph54%30.09 "Hg10 mi
11:58 AM91 °FSunny.7 mph52%30.11 "Hg10 mi
10:58 AM88 °FSunny.8 mph61%30.11 "Hg10 mi
Weather by CustomWeather, © 2016

See weather overviewHow to use our weather pages